Regional Weather Roundup
Issued by NWS

Home | Current Version | Previous Version | Text Only | Print | Product List | Glossary Off
Versions: 1 2 3 4 5 6 7 8 9 10 11 12 13 14 15 16 17 18 19 20 21 22 23 24 25 26 27 28 29 30 31 32 33 34 35 36 37 38 39 40 41 42 43 44 45 46 47 48 49 50

990
ASUS44 KLIX 290807
RWRLA
LOUISIANA WEATHER ROUNDUP
NATIONAL WEATHER SERVICE NEW ORLEANS LA
300 AM CDT SUN MAR 29 2015

NOTE: "FAIR" INDICATES FEW OR NO CLOUDS BELOW 12,000 FEET WITH NO
      SIGNIFICANT WEATHER AND/OR OBSTRUCTIONS TO VISIBILITY.
      SKY/WX - SKY CONDITION AND SIGNIFICANT WEATHER.
      TMP - AIR TEMPERATURE.    DP   - DEWPOINT TEMPERATURE.
      RH  - RELATIVE HUMIDITY.  PRES - PRESSURE.
      HX  - HEAT INDEX.         WCI  - WIND CHILL INDEX.

*  THESE STATIONS ARE NOT NWS OR FAA STATIONS AND ARE NOT UNDER
   NWS QUALITY CONTROL.

LAZ040-048-061>063-065-066-069-290900-
SOUTHEAST LOUISIANA

CITY           SKY/WX    TMP DP  RH WIND       PRES   REMARKS
N.O. AUDUBON     N/A     59  55  87 MISG        N/A
N.O. INTL ARPT PTCLDY    56  50  80 SE5       30.22F
N.O. LAKEFRONT CLEAR     59  52  77 SE8       30.23F
SLIDELL        CLEAR     49  42  77 E5        30.24F
BATON ROUGE    CLEAR     51  49  92 E5        30.21S
BOOTHVILLE     CLEAR     57  53  86 E5        30.23F
BELLE CHASSE   CLEAR     57  52  83 SE6       30.22F
BOGALUSA*        N/A     49  35  59 NE3       30.28S
GALLIANO*      SUNNY     57  56  94 CALM      30.22S
NEW ROADS*     FAIR      54  51  89 E5        30.20S
GONZALES*      PTSUNNY   53  53 100 CALM      30.21S
HAMMOND*       CLEAR     52  46  82 E5        30.25S
HOUMA*         CLEAR     54  54  99 NE3       30.21S FOG
PORT FOURCHON* SUNNY     66  61  82 SE7       30.24S

$$

LAZ041-044-053-054-290900-
SOUTHWEST LOUISIANA

CITY           SKY/WX    TMP DP  RH WIND       PRES   REMARKS
LAKE CHARLES   CLEAR     56  55  97 SE5       30.15F
LAFAYETTE      CLEAR     57  55  93 CALM      30.18F
PATTERSON      CLEAR     57  54  88 CALM      30.19F
SALT POINT       N/A     59  57  93 E3        30.18F
NEW IBERIA     CLEAR     55  54  96 SE3       30.19F
CHENAULT AIRPK   N/A     54  54  99 SE8       30.16S FOG

$$

LAZ027-028-290900-
CENTRAL LOUISIANA

CITY           SKY/WX    TMP DP  RH WIND       PRES   REMARKS
FORT POLK      MOCLDY    57  56  96 SE6       30.14F
ALEXANDRIA INT CLOUDY    59  57  93 E8        30.15S
ALEXANDRIA     CLOUDY    56  54  93 CALM      30.18S

$$

LAZ001-002-290900-
NORTHWEST LOUISIANA

CITY           SKY/WX    TMP DP  RH WIND       PRES   REMARKS
SHREVEPORT     CLEAR     51  40  65 E8        30.13F
BARKSDALE AFB  CLEAR     49  37  65 E8        30.14F
DTN SHREVEPORT CLEAR     50  37  61 E8        30.14F

$$

LAZ014-016-290900-
NORTHEAST LOUISIANA

CITY           SKY/WX    TMP DP  RH WIND       PRES   REMARKS
MONROE         MOCLDY    48  36  63 E5        30.21F
TALLULAH       LGT RAIN  48  34  58 SE12      30.24F

$$




USA.gov is the U.S. government's official web portal to all federal, state and local government web resources and services.